FW1790 Weather Reports


time (UTC)temp
C
wind
direction
speed
KPH
gust
KPH
rain 1hr
cm
rain 24hr
cm
rain mn
cm
humidity
%
barometer
mb
20260508085720 11 247 3.2 3.2 0.00 0.00 0.00 54 1015.0
20260508084819 11 331 0.0 3.2 0.00 0.00 0.00 52 1015.0
20260508084220 12 339 3.2 4.8 0.00 0.00 0.00 51 1015.0
20260508083721 12 0 0.0 0.0 0.00 0.00 0.00 51 1015.0
20260508083220 12 64 0.0 3.2 0.00 0.00 0.00 51 1015.0
20260508082720 12 23 1.6 3.2 0.00 0.00 0.00 51 1015.0
20260508082221 12 0 0.0 0.0 0.00 0.00 0.00 49 1015.0
20260508081721 12 88 3.2 6.4 0.00 0.00 0.00 48 1015.0
20260508081220 13 255 4.8 6.4 0.00 0.00 0.00 47 1015.0
20260508080720 13 256 6.4 9.7 0.00 0.00 0.00 47 1015.0
20260508080220 13 259 8.0 9.7 0.00 0.00 0.00 46 1015.0
20260508075720 12 258 8.0 9.7 0.00 0.00 0.00 47 1015.0
20260508075220 12 264 6.4 6.4 0.00 0.00 0.00 47 1015.0
20260508074720 12 261 6.4 8.0 0.00 0.00 0.00 48 1015.0
20260508074221 12 263 8.0 9.7 0.00 0.00 0.00 48 1015.0
20260508073721 13 254 6.4 8.0 0.00 0.00 0.00 47 1015.0
20260508073221 13 244 4.8 4.8 0.00 0.00 0.00 48 1015.0
20260508072721 13 238 4.8 4.8 0.00 0.00 0.00 47 1015.0
20260508072221 13 236 6.4 8.0 0.00 0.00 0.00 47 1015.0
20260508071722 13 238 4.8 6.4 0.00 0.00 0.00 45 1015.0
20260508071220 13 235 3.2 4.8 0.00 0.00 0.00 46 1015.0
20260508070724 13 239 3.2 4.8 0.00 0.00 0.00 45 1015.0
20260508070220 13 247 6.4 8.0 0.00 0.00 0.00 45 1015.0
20260508065721 13 248 6.4 8.0 0.00 0.00 0.00 46 1015.0
20260508065220 14 239 6.4 8.0 0.00 0.00 0.00 45 1015.0
20260508064720 15 247 3.2 4.8 0.00 0.00 0.00 43 1015.0
20260508064221 15 229 6.4 9.7 0.00 0.00 0.00 41 1015.0
20260508063722 15 232 6.4 6.4 0.00 0.00 0.00 40 1015.0
20260508063220 15 275 3.2 4.8 0.00 0.00 0.00 40 1015.0
20260508062720 15 284 4.8 6.4 0.00 0.00 0.00 39 1015.0
20260508062220 14 301 4.8 8.0 0.00 0.00 0.00 41 1015.0
20260508061720 14 345 3.2 6.4 0.00 0.00 0.00 44 1015.0
20260508061225 14 353 6.4 8.0 0.00 0.00 0.00 43 1015.0
20260508060721 15 304 1.6 1.6 0.00 0.00 0.00 41 1015.0
20260508060221 15 290 3.2 3.2 0.00 0.00 0.00 41 1015.0
20260508055720 15 0 0.0 0.0 0.00 0.00 0.00 39 1015.0
20260508055220 15 237 4.8 4.8 0.00 0.00 0.00 39 1014.0
20260508054721 15 264 6.4 6.4 0.00 0.00 0.00 40 1014.0
20260508054221 15 266 6.4 6.4 0.00 0.00 0.00 41 1014.0
20260508053720 15 270 6.4 8.0 0.00 0.00 0.00 43 1014.0
20260508053221 15 275 3.2 3.2 0.00 0.00 0.00 43 1014.0
20260508052720 15 280 3.2 4.8 0.00 0.00 0.00 42 1014.0
20260508052220 15 276 4.8 6.4 0.00 0.00 0.00 41 1014.0
20260508051728 15 253 1.6 3.2 0.00 0.00 0.00 43 1015.0
20260508051220 15 128 3.2 4.8 0.00 0.00 0.00 42 1014.0
20260508050721 15 132 3.2 3.2 0.00 0.00 0.00 42 1014.0
20260508050221 15 166 3.2 4.8 0.00 0.00 0.00 41 1014.0
20260508045720 15 261 9.7 11.3 0.00 0.00 0.00 40 1014.0
20260508044750 16 263 9.7 11.3 0.00 0.00 0.00 39 1014.0
20260508044220 16 266 8.0 9.7 0.00 0.00 0.00 39 1014.0
20260508043720 16 261 8.0 11.3 0.00 0.00 0.00 39 1014.0
20260508043221 16 265 9.7 12.9 0.00 0.00 0.00 39 1014.0
20260508042722 16 264 6.4 8.0 0.00 0.00 0.00 39 1014.0
20260508042220 16 263 8.0 9.7 0.00 0.00 0.00 39 1014.0
20260508041721 16 271 9.7 9.7 0.00 0.00 0.00 39 1014.0
20260508041220 16 265 8.0 9.7 0.00 0.00 0.00 39 1014.0
20260508040721 17 271 8.0 11.3 0.00 0.00 0.00 38 1014.0
20260508040222 17 268 8.0 8.0 0.00 0.00 0.00 38 1014.0
20260508035720 17 267 4.8 6.4 0.00 0.00 0.00 37 1014.0
20260508035220 17 261 6.4 8.0 0.00 0.00 0.00 37 1014.0
20260508034721 17 262 8.0 9.7 0.00 0.00 0.00 37 1014.0
20260508034220 17 258 8.0 9.7 0.00 0.00 0.00 37 1014.0
20260508033720 17 265 9.7 11.3 0.00 0.00 0.00 37 1014.0
20260508033220 18 264 9.7 12.9 0.00 0.00 0.00 37 1014.0
20260508032720 18 270 9.7 12.9 0.00 0.00 0.00 36 1014.0
20260508032221 18 271 8.0 9.7 0.00 0.00 0.00 35 1014.0
20260508031720 18 260 8.0 9.7 0.00 0.00 0.00 35 1014.0
20260508031221 18 255 8.0 9.7 0.00 0.00 0.00 34 1014.0
20260508030721 18 256 6.4 8.0 0.00 0.00 0.00 34 1014.0
20260508030220 19 265 4.8 6.4 0.00 0.00 0.00 33 1014.0
20260508025721 20 266 4.8 4.8 0.00 0.00 0.00 32 1014.0
20260508025220 20 273 3.2 4.8 0.00 0.00 0.00 30 1014.0
20260508024720 21 284 3.2 3.2 0.00 0.00 0.00 28 1013.0
20260508024220 21 268 1.6 3.2 0.00 0.00 0.00 27 1013.0
20260508023721 21 264 1.6 3.2 0.00 0.00 0.00 28 1013.0
20260508023223 21 258 0.0 3.2 0.00 0.00 0.00 28 1014.0
20260508022720 21 260 1.6 3.2 0.00 0.00 0.00 27 1014.0
20260508022220 22 271 1.6 3.2 0.00 0.00 0.00 27 1014.0
20260508021721 22 0 0.0 0.0 0.00 0.00 0.00 25 1014.0
20260508021220 22 0 0.0 0.0 0.00 0.00 0.00 25 1013.0
20260508020720 22 0 0.0 0.0 0.00 0.00 0.00 25 1013.0
20260508020221 22 115 0.0 1.6 0.00 0.00 0.00 25 1013.0
20260508015721 22 0 0.0 0.0 0.00 0.00 0.00 25 1013.0
20260508015220 22 94 1.6 3.2 0.00 0.00 0.00 24 1013.0
20260508014721 22 96 0.0 3.2 0.00 0.00 0.00 24 1013.0
20260508014220 22 66 0.0 3.2 0.00 0.00 0.00 24 1013.0
20260508013721 22 93 6.4 6.4 0.00 0.00 0.00 24 1013.0
20260508013220 23 94 4.8 8.0 0.00 0.00 0.00 24 1013.0
20260508012720 23 80 6.4 9.7 0.00 0.00 0.00 24 1013.0
20260508012220 23 65 1.6 3.2 0.00 0.00 0.00 24 1013.0
20260508011720 23 81 3.2 4.8 0.00 0.00 0.00 24 1013.0
20260508011221 23 112 6.4 8.0 0.00 0.00 0.00 23 1013.0
20260508010721 23 141 0.0 3.2 0.00 0.00 0.00 24 1013.0
20260508010220 23 109 3.2 4.8 0.00 0.00 0.00 24 1013.0
20260508005721 22 104 4.8 6.4 0.00 0.00 0.00 24 1013.0
20260508005221 22 77 1.6 6.4 0.00 0.00 0.00 25 1013.0
20260508004720 22 97 1.6 4.8 0.00 0.00 0.00 24 1014.0
20260508004221 22 326 0.0 1.6 0.00 0.00 0.00 24 1013.0
20260508003720 22 0 0.0 0.0 0.00 0.00 0.00 24 1013.0
20260508003221 22 71 4.8 6.4 0.00 0.00 0.00 24 1013.0
20260508002721 22 79 4.8 6.4 0.00 0.00 0.00 24 1013.0
20260508002220 22 0 0.0 0.0 0.00 0.00 0.00 24 1014.0
20260508001726 22 77 6.4 9.7 0.00 0.00 0.00 24 1014.0
20260508001221 22 352 1.6 3.2 0.00 0.00 0.00 24 1014.0
20260508000721 23 81 6.4 8.0 0.00 0.00 0.00 24 1014.0
20260508000220 23 78 4.8 6.4 0.00 0.00 0.00 25 1014.0
20260507235720 23 44 0.0 1.6 0.00 0.00 0.00 24 1014.0
20260507235221 23 62 8.0 11.3 0.00 0.00 0.00 24 1014.0
20260507234721 23 36 6.4 9.7 0.00 0.00 0.00 24 1014.0
20260507234220 23 3 6.4 12.9 0.00 0.00 0.00 23 1014.0
20260507233721 23 15 4.8 9.7 0.00 0.00 0.00 24 1014.0
20260507233220 23 14 9.7 16.1 0.00 0.00 0.00 23 1013.0
20260507232720 23 12 9.7 14.5 0.00 0.00 0.00 23 1013.0
20260507232220 23 16 6.4 11.3 0.00 0.00 0.00 24 1014.0
20260507231721 22 59 6.4 9.7 0.00 0.00 0.00 25 1014.0
20260507231220 23 28 6.4 12.9 0.00 0.00 0.00 24 1014.0
20260507230721 23 39 11.3 17.7 0.00 0.00 0.00 24 1014.0
20260507230221 23 40 11.3 16.1 0.00 0.00 0.00 24 1014.0
20260507225720 23 0 6.4 8.0 0.00 0.00 0.00 23 1014.0
20260507225220 23 348 6.4 14.5 0.00 0.00 0.00 23 1014.0
20260507224720 23 352 9.7 14.5 0.00 0.00 0.00 23 1014.0
20260507224220 23 8 9.7 14.5 0.00 0.00 0.00 24 1014.0
20260507223720 23 0 9.7 12.9 0.00 0.00 0.00 23 1014.0
20260507223220 23 50 8.0 11.3 0.00 0.00 0.00 24 1014.0
20260507222721 23 47 8.0 11.3 0.00 0.00 0.00 23 1014.0
20260507222220 23 23 3.2 8.0 0.00 0.00 0.00 22 1014.0
20260507221721 23 6 8.0 12.9 0.00 0.00 0.00 23 1014.0
20260507221220 23 7 11.3 16.1 0.00 0.00 0.00 22 1015.0
20260507220721 23 27 9.7 11.3 0.00 0.00 0.00 23 1015.0
20260507220221 23 359 12.9 17.7 0.00 0.00 0.00 22 1015.0
20260507215720 23 3 12.9 20.9 0.00 0.00 0.00 22 1015.0
20260507215221 23 0 8.0 14.5 0.00 0.00 0.00 22 1015.0
20260507214720 23 348 3.2 3.2 0.00 0.00 0.00 22 1015.0
20260507214221 23 320 3.2 6.4 0.00 0.00 0.00 22 1015.0
20260507213720 23 17 8.0 16.1 0.00 0.00 0.00 22 1015.0
20260507213220 23 334 3.2 9.7 0.00 0.00 0.00 23 1015.0
20260507212721 23 258 9.7 12.9 0.00 0.00 0.00 23 1015.0
20260507212220 22 210 3.2 6.4 0.00 0.00 0.00 22 1015.0
20260507211720 22 277 3.2 4.8 0.00 0.00 0.00 22 1015.0
20260507211221 23 279 14.5 17.7 0.00 0.00 0.00 22 1015.0
20260507210720 23 275 6.4 8.0 0.00 0.00 0.00 23 1015.0
20260507210221 23 284 4.8 9.7 0.00 0.00 0.00 23 1015.0
20260507205726 23 227 3.2 6.4 0.00 0.00 0.00 22 1016.0
20260507205221 23 257 8.0 14.5 0.00 0.00 0.00 22 1015.0
20260507204720 23 132 6.4 9.7 0.00 0.00 0.00 22 1015.0
20260507204221 22 142 3.2 6.4 0.00 0.00 0.00 22 1015.0
20260507203721 22 159 3.2 11.3 0.00 0.00 0.00 22 1015.0
20260507203220 22 184 9.7 12.9 0.00 0.00 0.00 22 1015.0
20260507202721 22 227 8.0 12.9 0.00 0.00 0.00 22 1015.0
20260507202220 22 166 6.4 8.0 0.00 0.00 0.00 22 1015.0
20260507201720 22 136 6.4 12.9 0.00 0.00 0.00 22 1015.0
20260507201220 21 136 8.0 12.9 0.00 0.00 0.00 23 1015.0
20260507200721 21 170 8.0 11.3 0.00 0.00 0.00 23 1015.0
20260507200220 21 154 12.9 14.5 0.00 0.00 0.00 22 1016.0
20260507195720 21 185 8.0 14.5 0.00 0.00 0.00 23 1016.0
20260507195221 21 134 9.7 14.5 0.00 0.00 0.00 23 1016.0
20260507194720 21 140 6.4 12.9 0.00 0.00 0.00 24 1016.0
20260507194220 21 159 9.7 12.9 0.00 0.00 0.00 23 1016.0
20260507193721 21 161 14.5 17.7 0.00 0.00 0.00 23 1016.0
20260507193221 21 149 12.9 19.3 0.00 0.00 0.00 23 1016.0
20260507192721 21 152 9.7 16.1 0.00 0.00 0.00 24 1016.0
20260507192221 20 148 11.3 20.9 0.00 0.00 0.00 24 1016.0
20260507191720 20 147 9.7 19.3 0.00 0.00 0.00 24 1016.0
20260507191220 20 154 11.3 16.1 0.00 0.00 0.00 24 1016.0
20260507190720 20 151 11.3 14.5 0.00 0.00 0.00 24 1016.0
20260507190220 20 138 12.9 17.7 0.00 0.00 0.00 24 1016.0
20260507185720 19 143 11.3 20.9 0.00 0.00 0.00 24 1016.0
20260507185221 19 144 12.9 17.7 0.00 0.00 0.00 25 1017.0
20260507184720 18 156 9.7 17.7 0.00 0.00 0.00 26 1017.0
20260507184220 19 157 11.3 17.7 0.00 0.00 0.00 25 1017.0
20260507183720 19 176 9.7 14.5 0.00 0.00 0.00 26 1016.0
20260507183221 18 157 8.0 12.9 0.00 0.00 0.00 26 1016.0
20260507182721 18 165 12.9 20.9 0.00 0.00 0.00 26 1016.0
20260507182228 18 163 14.5 19.3 0.00 0.00 0.00 26 1016.0
20260507181723 18 166 9.7 14.5 0.00 0.00 0.00 27 1017.0
20260507181225 18 169 12.9 20.9 0.00 0.00 0.00 27 1017.0
20260507180723 18 166 11.3 16.1 0.00 0.00 0.00 26 1017.0
20260507180220 17 156 14.5 20.9 0.00 0.00 0.00 28 1017.0
20260507175721 17 158 14.5 19.3 0.00 0.00 0.00 28 1017.0
20260507175220 17 172 8.0 14.5 0.00 0.00 0.00 28 1017.0
20260507174723 17 177 12.9 19.3 0.00 0.00 0.00 27 1017.0
20260507174221 18 166 16.1 19.3 0.00 0.00 0.00 26 1017.0
20260507173721 17 168 11.3 17.7 0.00 0.00 0.00 27 1016.0
20260507173221 17 154 11.3 14.5 0.00 0.00 0.00 29 1016.0
20260507172723 17 170 14.5 19.3 0.00 0.00 0.00 28 1017.0
20260507171731 16 163 9.7 20.9 0.00 0.00 0.00 29 1017.0
20260507171221 16 161 17.7 24.1 0.00 0.00 0.00 27 1017.0
20260507170721 16 172 16.1 20.9 0.00 0.00 0.00 27 1017.0
20260507170221 15 170 14.5 20.9 0.00 0.00 0.00 29 1017.0
20260507165721 15 168 12.9 20.9 0.00 0.00 0.00 32 1017.0
20260507165220 15 153 12.9 16.1 0.00 0.00 0.00 32 1017.0
20260507164721 15 162 14.5 19.3 0.00 0.00 0.00 33 1017.0
20260507164221 14 183 12.9 17.7 0.00 0.00 0.00 33 1017.0
20260507163722 14 163 11.3 14.5 0.00 0.00 0.00 36 1018.0
20260507163222 13 171 8.0 12.9 0.00 0.00 0.00 36 1018.0
20260507162722 13 177 12.9 19.3 0.00 0.00 0.00 38 1018.0
20260507162220 13 173 8.0 12.9 0.00 0.00 0.00 38 1018.0
20260507161722 13 170 11.3 16.1 0.00 0.00 0.00 38 1018.0
20260507161220 13 160 14.5 17.7 0.00 0.00 0.00 39 1018.0
20260507160720 13 164 12.9 17.7 0.00 0.00 0.00 40 1018.0
20260507160221 12 167 14.5 20.9 0.00 0.00 0.00 42 1018.0
20260507155721 12 179 11.3 16.1 0.00 0.00 0.00 43 1018.0
20260507155222 12 175 14.5 19.3 0.00 0.00 0.00 45 1018.0
20260507154721 12 165 14.5 19.3 0.00 0.00 0.00 46 1018.0
20260507154221 12 165 14.5 20.9 0.00 0.00 0.00 48 1018.0
20260507153720 12 169 12.9 22.5 0.00 0.00 0.00 49 1018.0
20260507153221 11 155 9.7 14.5 0.00 0.00 0.00 49 1018.0
20260507152722 11 167 9.7 17.7 0.00 0.00 0.00 48 1018.0
20260507152220 11 170 14.5 19.3 0.00 0.00 0.00 49 1018.0
20260507151722 11 167 17.7 29.0 0.00 0.00 0.00 49 1018.0
20260507151220 11 160 16.1 20.9 0.00 0.00 0.00 49 1018.0
20260507150721 11 157 12.9 17.7 0.00 0.00 0.00 52 1018.0
20260507150221 11 159 19.3 27.4 0.00 0.00 0.00 52 1018.0
20260507145720 11 165 19.3 24.1 0.00 0.00 0.00 52 1018.0
20260507145221 11 168 14.5 20.9 0.00 0.00 0.00 53 1018.0
20260507144722 11 162 16.1 22.5 0.00 0.00 0.00 53 1018.0
20260507144224 11 167 16.1 20.9 0.00 0.00 0.00 53 1018.0
20260507143724 11 159 9.7 14.5 0.00 0.00 0.00 52 1018.0
20260507143220 11 166 11.3 16.1 0.00 0.00 0.00 51 1018.0
20260507142723 11 164 14.5 22.5 0.00 0.00 0.00 50 1018.0
20260507142221 11 168 16.1 20.9 0.00 0.00 0.00 49 1018.0
20260507141720 11 183 16.1 20.9 0.00 0.00 0.00 48 1018.0
20260507141222 11 176 17.7 22.5 0.00 0.00 0.00 48 1018.0
20260507140721 11 184 14.5 22.5 0.00 0.00 0.00 45 1018.0
20260507140220 11 192 8.0 12.9 0.00 0.00 0.00 47 1018.0
20260507135720 11 194 14.5 20.9 0.00 0.00 0.00 49 1018.0
20260507135221 11 177 17.7 24.1 0.00 0.00 0.00 48 1018.0
20260507134723 11 173 17.7 25.7 0.00 0.00 0.00 47 1018.0
20260507134225 10 194 12.9 16.1 0.00 0.00 0.00 53 1018.0
20260507133722 10 190 9.7 22.5 0.00 0.00 0.00 54 1018.0
20260507133221 10 171 8.0 11.3 0.00 0.00 0.00 58 1018.0
20260507132720 9 186 9.7 16.1 0.00 0.00 0.00 58 1018.0
20260507132221 9 173 11.3 17.7 0.00 0.00 0.00 58 1018.0
20260507131720 9 153 9.7 14.5 0.00 0.00 0.00 57 1018.0
20260507131220 9 150 9.7 14.5 0.00 0.00 0.00 57 1018.0
20260507130720 9 157 8.0 14.5 0.00 0.00 0.00 57 1018.0
20260507130221 9 164 9.7 12.9 0.00 0.00 0.00 56 1018.0
20260507125721 9 160 14.5 19.3 0.00 0.00 0.00 55 1018.0
20260507125221 9 172 11.3 19.3 0.00 0.00 0.00 56 1018.0
20260507124720 9 172 9.7 17.7 0.00 0.00 0.00 56 1018.0
20260507123741 10 178 12.9 19.3 0.00 0.00 0.00 58 1018.0
20260507123220 10 187 12.9 16.1 0.00 0.00 0.00 58 1018.0
20260507122720 10 174 12.9 17.7 0.00 0.00 0.00 58 1018.0
20260507122221 10 184 14.5 19.3 0.00 0.00 0.00 57 1018.0
20260507121721 10 179 12.9 17.7 0.00 0.00 0.00 54 1018.0
20260507121220 10 185 14.5 19.3 0.00 0.00 0.00 52 1018.0
20260507120720 10 174 9.7 16.1 0.00 0.00 0.00 52 1018.0
20260507120220 10 192 9.7 14.5 0.00 0.00 0.00 50 1018.0
20260507115721 10 174 12.9 20.9 0.00 0.00 0.00 46 1018.0
20260507115220 10 173 12.9 17.7 0.00 0.00 0.00 44 1018.0
20260507114720 10 194 12.9 16.1 0.00 0.00 0.00 46 1018.0
20260507114220 10 168 9.7 19.3 0.00 0.00 0.00 50 1018.0
20260507113721 10 164 11.3 16.1 0.00 0.00 0.00 54 1018.0
20260507113220 10 171 8.0 14.5 0.00 0.00 0.00 57 1018.0
20260507112720 10 165 12.9 19.3 0.00 0.00 0.00 60 1018.0
20260507112222 10 180 11.3 17.7 0.00 0.00 0.00 60 1018.0
20260507111720 10 165 8.0 12.9 0.00 0.00 0.00 60 1018.0
20260507111221 10 170 6.4 9.7 0.00 0.00 0.00 60 1018.0
20260507110721 10 166 8.0 14.5 0.00 0.00 0.00 60 1018.0
20260507110224 10 168 8.0 17.7 0.00 0.00 0.00 59 1018.0
20260507105721 10 182 17.7 22.5 0.00 0.00 0.00 58 1018.0
20260507105220 10 179 3.2 8.0 0.00 0.00 0.00 57 1018.0
20260507104720 10 177 11.3 14.5 0.00 0.00 0.00 58 1018.0
20260507104221 10 183 8.0 11.3 0.00 0.00 0.00 56 1018.0
20260507103720 10 166 12.9 17.7 0.00 0.00 0.00 57 1018.0
20260507103220 10 168 8.0 9.7 0.00 0.00 0.00 57 1018.0
20260507102720 10 174 9.7 14.5 0.00 0.00 0.00 57 1018.0
20260507102226 10 180 12.9 19.3 0.00 0.00 0.00 58 1018.0
20260507101720 10 171 11.3 16.1 0.00 0.00 0.00 58 1018.0
20260507101220 10 177 11.3 19.3 0.00 0.00 0.00 59 1019.0
20260507100720 10 175 12.9 17.7 0.00 0.00 0.00 57 1019.0
20260507100222 11 175 11.3 17.7 0.00 0.00 0.00 51 1018.0
20260507095720 11 183 11.3 17.7 0.00 0.00 0.00 48 1019.0
20260507095228 11 183 14.5 22.5 0.00 0.00 0.00 50 1019.0
20260507094720 11 176 9.7 14.5 0.00 0.00 0.00 50 1019.0
20260507094220 11 185 12.9 17.7 0.00 0.00 0.00 48 1019.0
20260507093720 11 196 12.9 19.3 0.00 0.00 0.00 47 1019.0
20260507093221 11 188 14.5 20.9 0.00 0.00 0.00 48 1019.0
20260507092720 11 171 14.5 19.3 0.00 0.00 0.00 51 1019.0
20260507092221 11 176 8.0 14.5 0.00 0.00 0.00 50 1019.0
20260507091309 11 175 8.0 9.7 0.00 0.00 0.00 51 1019.0
20260507090721 11 166 8.0 11.3 0.00 0.00 0.00 53 1019.0
20260507090220 11 180 9.7 12.9 0.00 0.00 0.00 54 1019.0